Regional Weather Roundup
Issued by NWS State College, PA

Home | Current Version | Previous Version | Graphics & Text | Print | Product List | Glossary Off
Versions: 1 2 3 4 5 6 7 8 9 10 11 12 13 14 15 16 17 18 19 20 21 22 23 24 25 26 27 28 29 30 31 32 33 34 35 36 37 38 39 40 41 42 43 44 45 46 47 48 49 50

000
ASUS41 KCTP 290510
RWRCTP

REGIONAL WEATHER ROUNDUP
NATIONAL WEATHER SERVICE STATE COLLEGE PA
100 AM EDT SAT AUG 29 2015

Note: "fair" indicates few or no clouds below 12,000 feet with no
significant weather and/or obstructions to visibility.

* = STATION THAT DOES NOT REPORT PRECIPITATION /E.G. RAIN...SNOW...ETC/
    THUNDER OR FOG.

PAZ002>004-007>009-013>016-020>023-029>032-290600-
WESTERN PENNSYLVANIA

CITY           SKY/WX    TMP DP  RH WIND       PRES   REMARKS
ERIE           PTCLDY    62  56  80 CALM      30.17S
MEADVILLE      CLEAR     60  55  83 E3        30.20R
FRANKLIN*      CLEAR     57  54  88 CALM      30.22R
NEW CASTLE     FOG       57  57 100 CALM      30.20R VSB 1
BEAVER COUNTY  NOT AVBL
BUTLER*        CLEAR     55  54  94 NE3       30.20F
PITTSBURGH INT PTCLDY    63  55  75 CALM      30.18S
PITTSBURGH     CLEAR     66  49  54 E3        30.18S
INDIANA*       PTCLDY    59  55  88 CALM      30.23S
LATROBE        NOT AVBL
WASHINGTON CO* CLEAR     52  52 100 CALM      30.19S VSB 1
$$

PAZ004>006-010>012-017>019-024>028-033>037-041-042-045-046-049>053-290600-
CENTRAL PENNSYLVANIA

CITY           SKY/WX    TMP DP  RH WIND       PRES   REMARKS
BRADFORD       MOCLDY    52  50  93 CALM      30.23S
DUBOIS         PTCLDY    58  54  86 SE5       30.21F
CLEARFIELD     PTCLDY    54  51  90 N6        30.23S
JOHNSTOWN      CLEAR     61  52  72 S5        30.24R
ALTOONA        CLEAR     56  52  86 CALM      30.22F
STATE COLLEGE  PTCLDY    59  56  91 CALM      30.22S
WILLIAMSPORT   CLEAR     59  55  87 CALM      30.20S
SELINSGROVE    CLEAR     55  53  93 CALM      30.21S
FT INDIANTOWN  CLEAR     60  58  91 N1        30.21S
CAPITAL CITY   CLEAR     62  57  83 SW3       30.21R
HARRISBURG     PTCLDY    65  59  81 NE3       30.20S
YORK           CLEAR     58  56  93 CALM      30.22R
$$

PAZ038>040-043-044-047-048-054-055-060>062-067>071-290600-
EASTERN PENNSYLVANIA

CITY           SKY/WX    TMP DP  RH WIND       PRES   REMARKS
SCRANTON       PTCLDY    60  52  74 VRB6      30.22S
MOUNT POCONO   CLEAR     50  48  93 CALM      30.25F
ALLENTOWN      CLEAR     60  56  86 CALM      30.21S
QUAKERTOWN*    CLEAR     57  55  94 CALM      30.22S
READING        CLEAR     61  56  83 CALM      30.20S
LANCASTER      CLEAR     61  57  87 CALM      30.21S
COATESVILLE    CLEAR     63  59  88 CALM      30.23S
POTTSTOWN      CLEAR     58  57  97 CALM      30.22S
BLUE BELL      CLEAR     59  55  88 CALM      30.20S
DOYLESTOWN     CLEAR     58  56  93 CALM      30.20F
WILLOW GROVE   NOT AVBL
NORTH PHILA    CLEAR     65  56  72 CALM      30.21F
PHILADELPHIA   CLEAR     69  59  70 CALM      30.21R
$$


USA.gov is the U.S. government's official web portal to all federal, state and local government web resources and services.